STARLINK-5698 (55623 NORAD) Tracking and Keplerian Element Data

This shows tracking and keplerian element data for the satellite.

Feedback or suggestion? Click here.




ElementValue
Catalog55623
NameSTARLINK-5698
Epoch Orbit310
Epoch Day62.85358904
Epoch Year2023
RAAN237.7796
Inclination42.9992
Eccentricity0.0001853
Argument of Perigee272.5814
Mean Anonmoly87.4842
Mean Motion15.71362503
Decay Rate0.00018314
L11 55623U 23020BG 23062.85358904 .00018314 00000+0 14275-3 0 9991
L22 55623 42.9992 237.7796 0001853 272.5814 87.4842 15.71362503 3105



Live tracking and technical data element details for STARLINK-5698 (NORAD 55623). STARLINK-5698 can be tracked NOW for your location showing map with azimuth and elevation plus other details from your city location.







IsCatalogInMostPopularTable: catalog: 55623, numindb: 3
Update: records affected: 1



GetName: 55623 STARLINK-5698

Hit Count: updated at: Mon, 20 Mar 2023 12:14:25 GMT